Time,TemperatureF,DewpointF,PressureIn,WindDirection,WindDirectionDegrees,WindSpeedMPH,WindSpeedGustMPH,Humidity,HourlyPrecipIn,Conditions,Clouds,dailyrainin,SolarRadiationWatts/m^2,SoftwareType,DateUTC
2013-07-22 00:01:00,60.2,58.2,30.02,SSW,200,0.0,0.0,93,0.00,,,0.00,0,Wunderground v.1.15,2013-07-22 04:01:00,
2013-07-22 00:02:00,60.2,58.2,30.02,SSW,200,0.0,0.0,93,0.00,,,0.00,0,Wunderground v.1.15,2013-07-22 04:02:00,
2013-07-22 00:03:00,60.2,58.2,30.02,SSW,200,0.0,0.0,93,0.00,,,0.00,0,Wunderground v.1.15,2013-07-22 04:03:00,
2013-07-22 00:05:00,60.2,58.2,30.02,SSW,200,0.0,0.0,93,0.00,,,0.00,0,Wunderground v.1.15,2013-07-22 04:05:00,
2013-07-22 00:10:00,60.2,58.2,30.02,SSW,200,0.0,0.0,93,0.00,,,0.00,0,Wunderground v.1.15,2013-07-22 04:10:00,
2013-07-22 00:13:00,60.2,58.2,30.02,SSW,200,0.0,0.0,93,0.00,,,0.00,0,Wunderground v.1.15,2013-07-22 04:13:00,
2013-07-22 00:19:00,60.1,58.1,30.02,SSW,200,0.0,0.0,93,0.00,,,0.00,0,Wunderground v.1.15,2013-07-22 04:19:00,
2013-07-22 00:25:00,60.0,58.0,30.02,SSW,200,0.0,0.0,93,0.00,,,0.00,0,Wunderground v.1.15,2013-07-22 04:25:00,
2013-07-22 00:30:00,59.9,57.9,30.02,SSW,200,0.0,0.0,93,0.00,,,0.00,0,Wunderground v.1.15,2013-07-22 04:30:00,
2013-07-22 00:35:00,59.9,57.9,30.02,SSW,200,0.0,0.0,93,0.00,,,0.00,0,Wunderground v.1.15,2013-07-22 04:35:00,
2013-07-22 00:40:00,59.8,57.8,30.02,SSW,200,0.0,0.0,93,0.00,,,0.00,0,Wunderground v.1.15,2013-07-22 04:40:00,
2013-07-22 00:45:00,59.7,57.7,30.02,SSW,200,0.0,0.0,93,0.00,,,0.00,0,Wunderground v.1.15,2013-07-22 04:45:00,
2013-07-22 00:50:00,59.6,57.6,30.02,SSW,200,0.0,0.0,93,0.00,,,0.00,0,Wunderground v.1.15,2013-07-22 04:50:00,
2013-07-22 00:55:00,59.5,57.8,30.03,SSW,200,0.0,0.0,94,0.00,,,0.00,0,Wunderground v.1.15,2013-07-22 04:55:00,
2013-07-22 01:00:00,59.5,57.8,30.02,SSW,200,0.0,0.0,94,0.00,,,0.00,0,Wunderground v.1.15,2013-07-22 05:00:00,
2013-07-22 01:06:00,59.4,57.7,30.02,SSW,200,0.0,0.0,94,0.00,,,0.00,0,Wunderground v.1.15,2013-07-22 05:06:00,
2013-07-22 01:11:00,59.2,57.5,30.02,SSW,200,0.0,0.0,94,0.00,,,0.00,0,Wunderground v.1.15,2013-07-22 05:11:00,
2013-07-22 01:16:00,59.1,57.4,30.02,SSW,200,0.0,0.0,94,0.00,,,0.00,0,Wunderground v.1.15,2013-07-22 05:16:00,
2013-07-22 01:21:00,59.0,57.3,30.02,SSW,200,0.0,0.0,94,0.00,,,0.00,0,Wunderground v.1.15,2013-07-22 05:21:00,
2013-07-22 01:27:00,58.7,57.0,30.02,SSW,200,0.0,0.0,94,0.00,,,0.00,0,Wunderground v.1.15,2013-07-22 05:27:00,
2013-07-22 01:32:00,58.6,56.9,30.02,SSW,200,0.0,0.0,94,0.00,,,0.00,0,Wunderground v.1.15,2013-07-22 05:32:00,
2013-07-22 01:38:00,58.5,56.8,30.02,SSW,200,0.0,0.0,94,0.00,,,0.00,0,Wunderground v.1.15,2013-07-22 05:38:00,
2013-07-22 01:44:00,58.4,56.7,30.02,SSW,200,0.0,0.0,94,0.00,,,0.00,0,Wunderground v.1.15,2013-07-22 05:44:00,
2013-07-22 01:49:00,58.3,56.6,30.02,SSW,200,0.0,0.0,94,0.00,,,0.00,0,Wunderground v.1.15,2013-07-22 05:49:00,
2013-07-22 01:54:00,58.2,56.8,30.01,SSW,200,0.0,0.0,95,0.00,,,0.00,0,Wunderground v.1.15,2013-07-22 05:54:00,
2013-07-22 01:59:00,58.1,56.4,30.01,SSW,200,0.0,0.0,94,0.00,,,0.00,0,Wunderground v.1.15,2013-07-22 05:59:00,
2013-07-22 02:04:00,58.0,56.6,30.01,SSW,200,0.0,0.0,95,0.00,,,0.00,0,Wunderground v.1.15,2013-07-22 06:04:00,
2013-07-22 02:10:00,58.0,56.6,30.01,SSW,200,0.0,0.0,95,0.00,,,0.00,0,Wunderground v.1.15,2013-07-22 06:10:00,
2013-07-22 02:15:00,57.9,56.5,30.01,SSW,200,0.0,0.0,95,0.00,,,0.00,0,Wunderground v.1.15,2013-07-22 06:15:00,
2013-07-22 02:20:00,57.8,56.4,30.01,SSW,200,0.0,0.0,95,0.00,,,0.00,0,Wunderground v.1.15,2013-07-22 06:20:00,
2013-07-22 02:26:00,57.7,56.3,30.01,SSW,200,0.0,0.0,95,0.00,,,0.00,0,Wunderground v.1.15,2013-07-22 06:26:00,
2013-07-22 02:32:00,57.6,56.2,30.01,SSW,200,0.0,0.0,95,0.00,,,0.00,0,Wunderground v.1.15,2013-07-22 06:32:00,
2013-07-22 02:37:00,57.4,56.0,30.01,NNW,348,0.0,1.0,95,0.00,,,0.00,0,Wunderground v.1.15,2013-07-22 06:37:00,
2013-07-22 02:43:00,57.3,55.9,30.01,NNW,348,0.0,0.0,95,0.00,,,0.00,0,Wunderground v.1.15,2013-07-22 06:43:00,
2013-07-22 02:52:00,57.2,55.8,30.01,NNW,348,0.0,0.0,95,0.00,,,0.00,0,Wunderground v.1.15,2013-07-22 06:52:00,
2013-07-22 02:57:00,57.2,55.8,30.01,NNW,348,0.0,0.0,95,0.00,,,0.00,0,Wunderground v.1.15,2013-07-22 06:57:00,
2013-07-22 03:03:00,57.1,56.0,30.01,NNW,348,0.0,0.0,96,0.00,,,0.00,0,Wunderground v.1.15,2013-07-22 07:03:00,
2013-07-22 03:08:00,57.1,56.0,30.01,NNW,348,0.0,0.0,96,0.00,,,0.00,0,Wunderground v.1.15,2013-07-22 07:08:00,
2013-07-22 03:13:00,57.1,56.0,30.01,NNW,348,0.0,0.0,96,0.00,,,0.00,0,Wunderground v.1.15,2013-07-22 07:13:00,
2013-07-22 03:19:00,57.0,55.9,30.01,NNW,348,0.0,0.0,96,0.00,,,0.00,0,Wunderground v.1.15,2013-07-22 07:19:00,
2013-07-22 03:24:00,56.9,55.8,30.02,NNW,348,0.0,1.0,96,0.00,,,0.00,0,Wunderground v.1.15,2013-07-22 07:24:00,
2013-07-22 03:30:00,56.8,55.7,30.01,NNW,348,0.0,0.0,96,0.00,,,0.00,0,Wunderground v.1.15,2013-07-22 07:30:00,
2013-07-22 03:36:00,56.8,55.7,30.01,NNW,348,0.0,1.0,96,0.00,,,0.00,0,Wunderground v.1.15,2013-07-22 07:36:00,
2013-07-22 03:41:00,56.8,55.7,30.01,NNW,348,0.0,0.0,96,0.00,,,0.00,0,Wunderground v.1.15,2013-07-22 07:41:00,
2013-07-22 03:47:00,56.7,55.6,30.01,NNW,348,0.0,0.0,96,0.00,,,0.00,0,Wunderground v.1.15,2013-07-22 07:47:00,
2013-07-22 03:52:00,56.6,55.5,30.01,NNW,348,0.0,0.0,96,0.00,,,0.00,0,Wunderground v.1.15,2013-07-22 07:52:00,
2013-07-22 03:57:00,56.6,55.5,30.01,NNW,348,0.0,0.0,96,0.00,,,0.00,0,Wunderground v.1.15,2013-07-22 07:57:00,
2013-07-22 04:03:00,56.5,55.4,30.02,NNW,348,0.0,0.0,96,0.00,,,0.00,0,Wunderground v.1.15,2013-07-22 08:03:00,
2013-07-22 04:08:00,56.3,55.2,30.02,NNW,348,0.0,0.0,96,0.00,,,0.00,0,Wunderground v.1.15,2013-07-22 08:08:00,
2013-07-22 04:14:00,56.2,55.1,30.02,NNW,348,0.0,0.0,96,0.00,,,0.00,0,Wunderground v.1.15,2013-07-22 08:14:00,
2013-07-22 04:20:00,56.2,55.1,30.02,NNW,348,0.0,0.0,96,0.00,,,0.00,0,Wunderground v.1.15,2013-07-22 08:20:00,
2013-07-22 04:25:00,56.2,55.1,30.02,NNW,348,0.0,0.0,96,0.00,,,0.00,0,Wunderground v.1.15,2013-07-22 08:25:00,
2013-07-22 04:30:00,56.1,55.0,30.02,NNW,348,0.0,0.0,96,0.00,,,0.00,0,Wunderground v.1.15,2013-07-22 08:30:00,
2013-07-22 04:36:00,56.1,55.0,30.02,NNW,348,0.0,0.0,96,0.00,,,0.00,0,Wunderground v.1.15,2013-07-22 08:36:00,
2013-07-22 04:42:00,56.1,55.0,30.02,NNW,348,0.0,0.0,96,0.00,,,0.00,0,Wunderground v.1.15,2013-07-22 08:42:00,
2013-07-22 04:48:00,56.1,55.3,30.02,NNW,348,0.0,0.0,97,0.00,,,0.00,0,Wunderground v.1.15,2013-07-22 08:48:00,
2013-07-22 04:53:00,56.1,55.0,30.01,NNW,348,0.0,0.0,96,0.00,,,0.00,0,Wunderground v.1.15,2013-07-22 08:53:00,
2013-07-22 04:58:00,56.0,54.9,30.02,NNW,348,0.0,0.0,96,0.00,,,0.00,0,Wunderground v.1.15,2013-07-22 08:58:00,
2013-07-22 05:03:00,56.0,54.9,30.02,NNW,348,0.0,0.0,96,0.00,,,0.00,0,Wunderground v.1.15,2013-07-22 09:03:00,
2013-07-22 05:09:00,56.0,54.9,30.02,NNW,348,0.0,0.0,96,0.00,,,0.00,0,Wunderground v.1.15,2013-07-22 09:09:00,
2013-07-22 05:14:00,55.9,54.8,30.02,NNW,348,0.0,0.0,96,0.00,,,0.00,0,Wunderground v.1.15,2013-07-22 09:14:00,
2013-07-22 05:19:00,55.9,54.8,30.02,NNW,348,0.0,0.0,96,0.00,,,0.00,5,Wunderground v.1.15,2013-07-22 09:19:00,
2013-07-22 05:24:00,55.8,55.0,30.02,NNW,348,0.0,0.0,97,0.00,,,0.00,7,Wunderground v.1.15,2013-07-22 09:24:00,
2013-07-22 05:30:00,55.8,55.0,30.02,NNW,348,0.0,0.0,97,0.00,,,0.00,7,Wunderground v.1.15,2013-07-22 09:30:00,
2013-07-22 05:36:00,55.7,54.9,30.02,NNW,348,0.0,0.0,97,0.00,,,0.00,11,Wunderground v.1.15,2013-07-22 09:36:00,
2013-07-22 05:41:00,55.7,54.9,30.03,NNW,348,0.0,0.0,97,0.00,,,0.00,18,Wunderground v.1.15,2013-07-22 09:41:00,
2013-07-22 05:46:00,55.7,54.9,30.02,NNW,348,0.0,0.0,97,0.00,,,0.00,23,Wunderground v.1.15,2013-07-22 09:46:00,
2013-07-22 05:52:00,55.6,54.8,30.03,NNW,348,0.0,0.0,97,0.00,,,0.00,28,Wunderground v.1.15,2013-07-22 09:52:00,
2013-07-22 05:57:00,55.7,54.9,30.02,NNW,348,0.0,1.0,97,0.00,,,0.00,35,Wunderground v.1.15,2013-07-22 09:57:00,
2013-07-22 06:02:00,55.9,55.1,30.02,NNW,348,0.0,0.0,97,0.00,,,0.00,46,Wunderground v.1.15,2013-07-22 10:02:00,
2013-07-22 06:08:00,56.2,55.4,30.02,NNW,348,0.0,1.0,97,0.00,,,0.00,42,Wunderground v.1.15,2013-07-22 10:08:00,
2013-07-22 06:14:00,56.6,56.0,30.02,NNW,348,1.0,2.0,98,0.00,,,0.00,33,Wunderground v.1.15,2013-07-22 10:14:00,
2013-07-22 06:19:00,56.7,55.9,30.02,NNW,348,1.0,2.0,97,0.00,,,0.00,39,Wunderground v.1.15,2013-07-22 10:19:00,
2013-07-22 06:25:00,56.8,56.0,30.02,NNW,348,0.0,1.0,97,0.00,,,0.00,47,Wunderground v.1.15,2013-07-22 10:25:00,
2013-07-22 06:30:00,56.9,56.1,30.02,NNW,348,0.0,0.0,97,0.00,,,0.00,51,Wunderground v.1.15,2013-07-22 10:30:00,
2013-07-22 06:35:00,57.0,56.4,30.03,NNW,348,0.0,0.0,98,0.00,,,0.00,58,Wunderground v.1.15,2013-07-22 10:35:00,
2013-07-22 06:41:00,57.2,56.6,30.03,NNW,348,0.0,0.0,98,0.00,,,0.00,63,Wunderground v.1.15,2013-07-22 10:41:00,
2013-07-22 06:47:00,57.5,56.9,30.04,NNW,348,0.0,0.0,98,0.00,,,0.00,86,Wunderground v.1.15,2013-07-22 10:47:00,
2013-07-22 06:53:00,57.7,57.1,30.04,NNW,348,0.0,0.0,98,0.00,,,0.00,81,Wunderground v.1.15,2013-07-22 10:53:00,
2013-07-22 06:58:00,58.0,57.4,30.04,NNW,348,0.0,0.0,98,0.00,,,0.00,84,Wunderground v.1.15,2013-07-22 10:58:00,
2013-07-22 07:03:00,58.5,57.9,30.05,NNW,348,0.0,0.0,98,0.00,,,0.00,120,Wunderground v.1.15,2013-07-22 11:03:00,
2013-07-22 07:08:00,58.8,58.2,30.05,NNW,348,0.0,0.0,98,0.00,,,0.00,128,Wunderground v.1.15,2013-07-22 11:08:00,
2013-07-22 07:13:00,59.2,58.6,30.04,NNW,348,0.0,0.0,98,0.00,,,0.00,223,Wunderground v.1.15,2013-07-22 11:13:00,
2013-07-22 07:19:00,59.7,59.1,30.04,NNW,348,0.0,1.0,98,0.00,,,0.00,239,Wunderground v.1.15,2013-07-22 11:19:00,
2013-07-22 07:24:00,60.3,59.7,30.03,North,350,1.0,3.0,98,0.00,,,0.00,199,Wunderground v.1.15,2013-07-22 11:24:00,
2013-07-22 07:30:00,60.7,60.1,30.03,North,355,1.0,1.0,98,0.00,,,0.00,121,Wunderground v.1.15,2013-07-22 11:30:00,
2013-07-22 07:36:00,61.3,61.0,30.03,North,355,1.0,2.0,99,0.00,,,0.00,121,Wunderground v.1.15,2013-07-22 11:36:00,
2013-07-22 07:42:00,62.2,61.9,30.03,NNW,340,1.0,3.0,99,0.00,,,0.00,272,Wunderground v.1.15,2013-07-22 11:42:00,
2013-07-22 07:47:00,62.9,62.6,30.03,NNW,347,2.0,4.0,99,0.00,,,0.00,308,Wunderground v.1.15,2013-07-22 11:47:00,
2013-07-22 07:53:00,63.6,63.3,30.04,WNW,300,2.0,3.0,99,0.00,,,0.00,336,Wunderground v.1.15,2013-07-22 11:53:00,
2013-07-22 07:58:00,64.3,63.7,30.04,NNW,337,2.0,3.0,98,0.00,,,0.00,359,Wunderground v.1.15,2013-07-22 11:58:00,
2013-07-22 08:03:00,64.9,64.3,30.03,NNW,344,1.0,2.0,98,0.00,,,0.00,362,Wunderground v.1.15,2013-07-22 12:03:00,
2013-07-22 08:09:00,65.5,64.6,30.03,North,360,1.0,2.0,97,0.00,,,0.00,345,Wunderground v.1.15,2013-07-22 12:09:00,
2013-07-22 08:14:00,66.2,65.0,30.03,NE,55,1.0,1.0,96,0.00,,,0.00,341,Wunderground v.1.15,2013-07-22 12:14:00,
2013-07-22 08:19:00,66.6,65.1,30.03,NE,55,0.0,1.0,95,0.00,,,0.00,378,Wunderground v.1.15,2013-07-22 12:19:00,
2013-07-22 08:24:00,67.2,65.4,30.03,NE,55,0.0,1.0,94,0.00,,,0.00,394,Wunderground v.1.15,2013-07-22 12:24:00,
2013-07-22 08:30:00,68.0,65.6,30.03,ENE,57,0.0,0.0,92,0.00,,,0.00,274,Wunderground v.1.15,2013-07-22 12:30:00,
2013-07-22 08:36:00,68.7,65.6,30.03,SE,146,0.0,2.0,90,0.00,,,0.00,366,Wunderground v.1.15,2013-07-22 12:36:00,
2013-07-22 08:41:00,69.3,65.6,30.03,SW,214,1.0,2.0,88,0.00,,,0.00,302,Wunderground v.1.15,2013-07-22 12:41:00,
2013-07-22 08:46:00,69.8,66.1,30.03,SSW,196,0.0,2.0,88,0.00,,,0.00,294,Wunderground v.1.15,2013-07-22 12:46:00,
2013-07-22 08:52:00,70.1,65.7,30.03,SE,134,1.0,2.0,86,0.00,,,0.00,239,Wunderground v.1.15,2013-07-22 12:52:00,
2013-07-22 08:58:00,70.3,65.6,30.03,SE,134,1.0,2.0,85,0.00,,,0.00,195,Wunderground v.1.15,2013-07-22 12:58:00,
2013-07-22 09:04:00,70.5,66.1,30.03,SE,142,0.0,1.0,86,0.00,,,0.00,508,Wunderground v.1.15,2013-07-22 13:04:00,
2013-07-22 09:10:00,70.8,66.1,30.03,South,186,1.0,1.0,85,0.00,,,0.00,536,Wunderground v.1.15,2013-07-22 13:10:00,
2013-07-22 09:16:00,70.9,66.2,30.03,West,265,1.0,2.0,85,0.00,,,0.00,211,Wunderground v.1.15,2013-07-22 13:16:00,
2013-07-22 09:22:00,70.8,65.0,30.03,SSE,157,1.0,2.0,82,0.00,,,0.00,232,Wunderground v.1.15,2013-07-22 13:22:00,
2013-07-22 09:28:00,70.9,65.8,30.03,SSE,157,1.0,2.0,84,0.00,,,0.00,251,Wunderground v.1.15,2013-07-22 13:28:00,
2013-07-22 09:33:00,71.0,65.2,30.03,SSE,148,1.0,2.0,82,0.00,,,0.00,276,Wunderground v.1.15,2013-07-22 13:33:00,
2013-07-22 09:38:00,71.3,65.5,30.04,SSE,157,1.0,3.0,82,0.00,,,0.00,504,Wunderground v.1.15,2013-07-22 13:38:00,
2013-07-22 09:44:00,72.0,66.2,30.03,South,186,1.0,2.0,82,0.00,,,0.00,715,Wunderground v.1.15,2013-07-22 13:44:00,
2013-07-22 09:49:00,72.4,65.5,30.03,ESE,104,1.0,3.0,79,0.00,,,0.00,450,Wunderground v.1.15,2013-07-22 13:49:00,
2013-07-22 09:55:00,72.4,64.8,30.03,SSE,155,2.0,3.0,77,0.00,,,0.00,346,Wunderground v.1.15,2013-07-22 13:55:00,
2013-07-22 10:01:00,72.7,65.4,30.03,South,170,1.0,2.0,78,0.00,,,0.00,276,Wunderground v.1.15,2013-07-22 14:01:00,
2013-07-22 10:06:00,73.1,65.8,30.04,SSE,147,1.0,2.0,78,0.00,,,0.00,719,Wunderground v.1.15,2013-07-22 14:06:00,
2013-07-22 10:11:00,73.7,65.3,30.04,SSW,206,1.0,2.0,75,0.00,,,0.00,765,Wunderground v.1.15,2013-07-22 14:11:00,
2013-07-22 10:16:00,73.7,65.3,30.03,SSW,197,2.0,4.0,75,0.00,,,0.00,251,Wunderground v.1.15,2013-07-22 14:16:00,
2013-07-22 10:22:00,73.5,65.5,30.04,WSW,240,2.0,3.0,76,0.00,,,0.00,373,Wunderground v.1.15,2013-07-22 14:22:00,
2013-07-22 10:27:00,73.8,66.1,30.04,SW,216,1.0,3.0,77,0.00,,,0.00,759,Wunderground v.1.15,2013-07-22 14:27:00,
2013-07-22 10:32:00,74.0,65.6,30.04,South,186,1.0,2.0,75,0.00,,,0.00,401,Wunderground v.1.15,2013-07-22 14:32:00,
2013-07-22 10:37:00,74.3,65.9,30.04,South,177,1.0,5.0,75,0.00,,,0.00,408,Wunderground v.1.15,2013-07-22 14:37:00,
2013-07-22 10:43:00,74.4,66.0,30.03,SSE,166,2.0,4.0,75,0.00,,,0.00,555,Wunderground v.1.15,2013-07-22 14:43:00,
2013-07-22 10:48:00,74.6,64.6,30.04,SSW,213,2.0,4.0,71,0.00,,,0.00,589,Wunderground v.1.15,2013-07-22 14:48:00,
2013-07-22 10:53:00,74.8,64.4,30.03,SSW,202,2.0,5.0,70,0.00,,,0.00,861,Wunderground v.1.15,2013-07-22 14:53:00,
2013-07-22 10:59:00,74.6,61.6,30.04,ESE,120,3.0,5.0,64,0.00,,,0.00,981,Wunderground v.1.15,2013-07-22 14:59:00,
2013-07-22 11:05:00,74.4,62.7,30.04,South,182,3.0,7.0,67,0.00,,,0.00,279,Wunderground v.1.15,2013-07-22 15:05:00,
2013-07-22 11:10:00,74.0,62.8,30.04,South,173,3.0,3.0,68,0.00,,,0.00,257,Wunderground v.1.15,2013-07-22 15:10:00,
2013-07-22 11:15:00,73.8,62.6,30.04,SSE,167,3.0,6.0,68,0.00,,,0.00,663,Wunderground v.1.15,2013-07-22 15:15:00,
2013-07-22 11:20:00,73.9,63.1,30.04,SE,146,3.0,3.0,69,0.00,,,0.00,1042,Wunderground v.1.15,2013-07-22 15:20:00,
2013-07-22 11:26:00,74.7,63.4,30.04,SSE,149,3.0,5.0,68,0.00,,,0.00,526,Wunderground v.1.15,2013-07-22 15:26:00,
2013-07-22 11:32:00,74.8,62.2,30.03,SSW,196,4.0,4.0,65,0.00,,,0.00,628,Wunderground v.1.15,2013-07-22 15:32:00,
2013-07-22 11:37:00,74.6,62.5,30.03,SSW,196,4.0,8.0,66,0.00,,,0.00,568,Wunderground v.1.15,2013-07-22 15:37:00,
2013-07-22 11:43:00,74.4,61.0,30.03,SSE,152,4.0,7.0,63,0.00,,,0.00,490,Wunderground v.1.15,2013-07-22 15:43:00,
2013-07-22 11:48:00,74.2,60.8,30.03,SSE,155,3.0,7.0,63,0.00,,,0.00,269,Wunderground v.1.15,2013-07-22 15:48:00,
2013-07-22 11:53:00,73.7,61.2,30.03,ESE,109,3.0,3.0,65,0.00,,,0.00,315,Wunderground v.1.15,2013-07-22 15:53:00,
2013-07-22 11:58:00,73.4,61.3,30.03,South,178,3.0,4.0,66,0.00,,,0.00,406,Wunderground v.1.15,2013-07-22 15:58:00,
2013-07-22 12:03:00,73.6,60.7,30.03,SSE,160,3.0,4.0,64,0.00,,,0.00,450,Wunderground v.1.15,2013-07-22 16:03:00,
2013-07-22 12:09:00,73.6,60.2,30.03,SW,215,3.0,6.0,63,0.00,,,0.00,504,Wunderground v.1.15,2013-07-22 16:09:00,
2013-07-22 12:14:00,73.4,60.0,30.03,South,180,4.0,7.0,63,0.00,,,0.00,547,Wunderground v.1.15,2013-07-22 16:14:00,
2013-07-22 12:20:00,73.8,61.7,30.03,SW,229,3.0,4.0,66,0.00,,,0.00,410,Wunderground v.1.15,2013-07-22 16:20:00,
2013-07-22 12:25:00,73.7,60.8,30.03,ESE,116,3.0,4.0,64,0.00,,,0.00,396,Wunderground v.1.15,2013-07-22 16:25:00,
2013-07-22 12:31:00,73.3,60.4,30.04,South,183,3.0,3.0,64,0.00,,,0.00,137,Wunderground v.1.15,2013-07-22 16:31:00,
2013-07-22 12:37:00,72.8,60.3,30.04,South,172,2.0,3.0,65,0.00,,,0.00,60,Wunderground v.1.15,2013-07-22 16:37:00,
2013-07-22 12:42:00,72.0,59.6,30.04,SSW,207,2.0,2.0,65,0.00,,,0.00,60,Wunderground v.1.15,2013-07-22 16:42:00,
2013-07-22 12:47:00,71.4,59.0,30.04,South,180,2.0,8.0,65,0.00,,,0.00,60,Wunderground v.1.15,2013-07-22 16:47:00,
2013-07-22 12:53:00,70.8,58.9,30.04,SE,138,3.0,4.0,66,0.00,,,0.00,105,Wunderground v.1.15,2013-07-22 16:53:00,
2013-07-22 12:59:00,70.4,58.9,30.04,SSE,167,2.0,5.0,67,0.00,,,0.00,104,Wunderground v.1.15,2013-07-22 16:59:00,
2013-07-22 13:05:00,70.2,59.1,30.04,SSE,148,2.0,3.0,68,0.00,,,0.00,77,Wunderground v.1.15,2013-07-22 17:05:00,
2013-07-22 13:11:00,70.0,59.4,30.04,SSW,209,2.0,2.0,69,0.00,,,0.00,102,Wunderground v.1.15,2013-07-22 17:11:00,
2013-07-22 13:16:00,69.8,59.2,30.04,South,186,2.0,2.0,69,0.00,,,0.00,118,Wunderground v.1.15,2013-07-22 17:16:00,
2013-07-22 13:22:00,69.5,58.5,30.04,South,187,2.0,3.0,68,0.00,,,0.00,118,Wunderground v.1.15,2013-07-22 17:22:00,
2013-07-22 13:27:00,69.5,58.5,30.04,SSW,207,3.0,3.0,68,0.00,,,0.00,90,Wunderground v.1.15,2013-07-22 17:27:00,
2013-07-22 13:32:00,69.4,58.4,30.04,SSE,166,2.0,3.0,68,0.00,,,0.00,118,Wunderground v.1.15,2013-07-22 17:32:00,
2013-07-22 13:37:00,69.4,58.4,30.03,SSE,163,1.0,3.0,68,0.00,,,0.00,174,Wunderground v.1.15,2013-07-22 17:37:00,
2013-07-22 13:42:00,69.4,58.4,30.04,South,189,1.0,2.0,68,0.00,,,0.00,229,Wunderground v.1.15,2013-07-22 17:42:00,
2013-07-22 13:47:00,69.7,58.7,30.03,South,169,1.0,2.0,68,0.00,,,0.00,362,Wunderground v.1.15,2013-07-22 17:47:00,
2013-07-22 13:53:00,70.1,56.9,30.03,South,184,1.0,6.0,63,0.00,,,0.00,387,Wunderground v.1.15,2013-07-22 17:53:00,
2013-07-22 13:58:00,70.5,57.3,30.03,SE,144,2.0,6.0,63,0.00,,,0.00,494,Wunderground v.1.15,2013-07-22 17:58:00,
2013-07-22 14:03:00,71.1,57.4,30.02,SSW,196,2.0,2.0,62,0.00,,,0.00,446,Wunderground v.1.15,2013-07-22 18:03:00,
2013-07-22 14:09:00,71.6,57.0,30.02,South,169,3.0,4.0,60,0.00,,,0.00,921,Wunderground v.1.15,2013-07-22 18:09:00,
2013-07-22 14:15:00,72.3,56.7,30.02,East,93,4.0,8.0,58,0.00,,,0.00,450,Wunderground v.1.15,2013-07-22 18:15:00,
2013-07-22 14:21:00,72.3,57.2,30.01,SSE,155,5.0,5.0,59,0.00,,,0.00,346,Wunderground v.1.15,2013-07-22 18:21:00,
2013-07-22 14:26:00,72.4,56.8,30.01,SSW,199,3.0,6.0,58,0.00,,,0.00,452,Wunderground v.1.15,2013-07-22 18:26:00,
2013-07-22 14:31:00,72.5,56.4,30.01,SSE,153,2.0,3.0,57,0.00,,,0.00,374,Wunderground v.1.15,2013-07-22 18:31:00,
2013-07-22 14:37:00,72.6,56.5,30.01,SSW,196,2.0,6.0,57,0.00,,,0.00,413,Wunderground v.1.15,2013-07-22 18:37:00,
2013-07-22 14:43:00,72.7,56.6,30.01,SSW,202,2.0,3.0,57,0.00,,,0.00,404,Wunderground v.1.15,2013-07-22 18:43:00,
2013-07-22 14:49:00,73.0,57.3,30.01,SSE,153,2.0,5.0,58,0.00,,,0.00,448,Wunderground v.1.15,2013-07-22 18:49:00,
2013-07-22 14:55:00,73.1,57.0,30.01,SE,146,2.0,4.0,57,0.00,,,0.00,492,Wunderground v.1.15,2013-07-22 18:55:00,
2013-07-22 15:00:00,72.8,56.2,30.01,South,174,3.0,4.0,56,0.00,,,0.00,316,Wunderground v.1.15,2013-07-22 19:00:00,
2013-07-22 15:06:00,72.3,56.7,30.01,SSW,204,4.0,8.0,58,0.00,,,0.00,306,Wunderground v.1.15,2013-07-22 19:06:00,
2013-07-22 15:11:00,72.2,57.1,30.01,SSE,167,2.0,4.0,59,0.00,,,0.00,520,Wunderground v.1.15,2013-07-22 19:11:00,
2013-07-22 15:16:00,72.5,57.4,30.01,SE,132,2.0,4.0,59,0.00,,,0.00,617,Wunderground v.1.15,2013-07-22 19:16:00,
2013-07-22 15:21:00,72.9,56.8,30.01,SSE,164,2.0,3.0,57,0.00,,,0.00,469,Wunderground v.1.15,2013-07-22 19:21:00,
2013-07-22 15:27:00,73.3,57.6,30.01,SE,125,1.0,3.0,58,0.00,,,0.00,768,Wunderground v.1.15,2013-07-22 19:27:00,
2013-07-22 15:32:00,73.9,57.7,30.01,SSW,197,0.0,1.0,57,0.00,,,0.00,461,Wunderground v.1.15,2013-07-22 19:32:00,
2013-07-22 15:37:00,73.9,56.7,30.00,SSE,152,1.0,3.0,55,0.00,,,0.00,381,Wunderground v.1.15,2013-07-22 19:37:00,
2013-07-22 15:43:00,73.6,56.9,30.00,South,184,2.0,4.0,56,0.00,,,0.00,301,Wunderground v.1.15,2013-07-22 19:43:00,
2013-07-22 15:48:00,73.4,56.7,30.00,SE,125,2.0,4.0,56,0.00,,,0.00,221,Wunderground v.1.15,2013-07-22 19:48:00,
2013-07-22 15:54:00,72.9,56.8,30.00,SE,144,2.0,3.0,57,0.00,,,0.00,165,Wunderground v.1.15,2013-07-22 19:54:00,
2013-07-22 15:59:00,72.4,57.3,30.00,SSE,149,3.0,4.0,59,0.00,,,0.00,155,Wunderground v.1.15,2013-07-22 19:59:00,
2013-07-22 16:04:00,72.0,57.4,29.99,SSW,202,2.0,3.0,60,0.00,,,0.00,128,Wunderground v.1.15,2013-07-22 20:04:00,
2013-07-22 16:09:00,71.8,57.2,29.99,SSE,151,1.0,3.0,60,0.00,,,0.00,100,Wunderground v.1.15,2013-07-22 20:09:00,
2013-07-22 16:15:00,71.4,56.8,30.00,SSE,151,1.0,2.0,60,0.00,,,0.00,100,Wunderground v.1.15,2013-07-22 20:15:00,
2013-07-22 16:17:00,71.2,56.6,29.99,SE,144,1.0,2.0,60,0.00,,,0.00,107,Wunderground v.1.15,2013-07-22 20:17:00,
2013-07-22 16:20:00,71.1,57.4,29.99,SSE,157,2.0,2.0,62,0.00,,,0.00,137,Wunderground v.1.15,2013-07-22 20:20:00,
2013-07-22 16:21:00,71.0,57.3,29.99,SSE,150,2.0,2.0,62,0.00,,,0.00,146,Wunderground v.1.15,2013-07-22 20:21:00,
2013-07-22 16:24:00,70.9,57.7,29.99,SSE,148,2.0,2.0,63,0.00,,,0.00,174,Wunderground v.1.15,2013-07-22 20:24:00,
2013-07-22 16:27:00,70.8,57.6,29.99,SSE,161,2.0,2.0,63,0.00,,,0.00,190,Wunderground v.1.15,2013-07-22 20:27:00,
2013-07-22 16:33:00,70.7,57.9,29.99,SE,145,1.0,3.0,64,0.00,,,0.00,211,Wunderground v.1.15,2013-07-22 20:33:00,
2013-07-22 16:39:00,70.8,58.0,29.99,South,173,1.0,3.0,64,0.00,,,0.00,125,Wunderground v.1.15,2013-07-22 20:39:00,
2013-07-22 16:44:00,70.6,57.8,29.98,South,171,2.0,5.0,64,0.00,,,0.00,88,Wunderground v.1.15,2013-07-22 20:44:00,
2013-07-22 16:46:00,70.5,57.7,29.98,South,169,2.0,5.0,64,0.00,,,0.00,83,Wunderground v.1.15,2013-07-22 20:46:00,
2013-07-22 16:51:00,70.2,57.9,29.99,SE,135,2.0,4.0,65,0.00,,,0.00,81,Wunderground v.1.15,2013-07-22 20:51:00,
2013-07-22 16:57:00,69.9,57.6,29.98,SE,145,2.0,4.0,65,0.00,,,0.00,72,Wunderground v.1.15,2013-07-22 20:57:00,
2013-07-22 17:02:00,69.8,58.3,29.98,SSE,148,2.0,2.0,67,0.00,,,0.00,84,Wunderground v.1.15,2013-07-22 21:02:00,
2013-07-22 17:08:00,69.6,58.2,29.98,SSE,165,2.0,2.0,67,0.00,,,0.00,120,Wunderground v.1.15,2013-07-22 21:08:00,
2013-07-22 17:13:00,69.4,57.5,29.98,SSW,211,2.0,3.0,66,0.00,,,0.00,148,Wunderground v.1.15,2013-07-22 21:13:00,
2013-07-22 17:18:00,69.4,58.0,29.98,SW,225,2.0,3.0,67,0.00,,,0.00,104,Wunderground v.1.15,2013-07-22 21:18:00,
2013-07-22 17:23:00,69.3,57.5,29.98,SSE,160,1.0,2.0,66,0.00,,,0.00,60,Wunderground v.1.15,2013-07-22 21:23:00,
2013-07-22 17:29:00,69.1,56.8,29.98,SE,126,2.0,4.0,65,0.00,,,0.00,44,Wunderground v.1.15,2013-07-22 21:29:00,
2013-07-22 17:34:00,68.8,57.4,29.98,SE,146,2.0,5.0,67,0.00,,,0.00,40,Wunderground v.1.15,2013-07-22 21:34:00,
2013-07-22 17:40:00,68.5,57.1,29.98,SE,143,2.0,2.0,67,0.00,,,0.00,49,Wunderground v.1.15,2013-07-22 21:40:00,
2013-07-22 17:45:00,68.3,56.9,29.98,SE,132,2.0,4.0,67,0.00,,,0.00,79,Wunderground v.1.15,2013-07-22 21:45:00,
2013-07-22 17:50:00,68.1,57.1,29.98,SSE,153,2.0,2.0,68,0.00,,,0.00,151,Wunderground v.1.15,2013-07-22 21:50:00,
2013-07-22 17:55:00,68.1,57.1,29.98,SE,136,2.0,3.0,68,0.00,,,0.00,225,Wunderground v.1.15,2013-07-22 21:55:00,
2013-07-22 18:00:00,68.2,57.6,29.98,SSE,148,2.0,2.0,69,0.00,,,0.00,211,Wunderground v.1.15,2013-07-22 22:00:00,
2013-07-22 18:05:00,68.6,57.6,29.98,SSE,159,1.0,3.0,68,0.00,,,0.00,160,Wunderground v.1.15,2013-07-22 22:05:00,
2013-07-22 18:11:00,68.7,56.9,29.97,SE,142,1.0,2.0,66,0.00,,,0.00,213,Wunderground v.1.15,2013-07-22 22:11:00,
2013-07-22 18:16:00,68.8,56.6,29.98,SSE,165,2.0,4.0,65,0.00,,,0.00,260,Wunderground v.1.15,2013-07-22 22:16:00,
2013-07-22 18:21:00,68.8,56.6,29.97,SE,137,2.0,4.0,65,0.00,,,0.00,236,Wunderground v.1.15,2013-07-22 22:21:00,
2013-07-22 18:26:00,68.8,56.6,29.97,SE,138,2.0,4.0,65,0.00,,,0.00,227,Wunderground v.1.15,2013-07-22 22:26:00,
2013-07-22 18:32:00,69.0,57.6,29.97,SE,144,2.0,2.0,67,0.00,,,0.00,209,Wunderground v.1.15,2013-07-22 22:32:00,
2013-07-22 18:37:00,69.1,57.7,29.97,SE,138,2.0,2.0,67,0.00,,,0.00,195,Wunderground v.1.15,2013-07-22 22:37:00,
2013-07-22 18:43:00,69.0,57.6,29.97,SE,143,2.0,3.0,67,0.00,,,0.00,178,Wunderground v.1.15,2013-07-22 22:43:00,
2013-07-22 18:49:00,68.9,57.9,29.97,SE,146,2.0,3.0,68,0.00,,,0.00,162,Wunderground v.1.15,2013-07-22 22:49:00,
2013-07-22 18:54:00,68.8,57.4,29.97,South,186,2.0,2.0,67,0.00,,,0.00,142,Wunderground v.1.15,2013-07-22 22:54:00,
2013-07-22 18:59:00,68.7,57.3,29.97,SE,132,2.0,4.0,67,0.00,,,0.00,109,Wunderground v.1.15,2013-07-22 22:59:00,
2013-07-22 19:04:00,68.6,57.6,29.97,SSE,157,2.0,3.0,68,0.00,,,0.00,113,Wunderground v.1.15,2013-07-22 23:04:00,
2013-07-22 19:09:00,68.5,57.5,29.97,South,178,2.0,4.0,68,0.00,,,0.00,100,Wunderground v.1.15,2013-07-22 23:09:00,
2013-07-22 19:15:00,68.3,58.1,29.97,SE,132,1.0,3.0,70,0.00,,,0.00,88,Wunderground v.1.15,2013-07-22 23:15:00,
2013-07-22 19:20:00,68.1,57.9,29.97,SE,141,1.0,3.0,70,0.00,,,0.00,76,Wunderground v.1.15,2013-07-22 23:20:00,
2013-07-22 19:26:00,67.9,58.5,29.97,SSE,159,2.0,3.0,72,0.00,,,0.00,62,Wunderground v.1.15,2013-07-22 23:26:00,
2013-07-22 19:32:00,67.7,58.3,29.96,SSE,157,1.0,3.0,72,0.00,,,0.00,47,Wunderground v.1.15,2013-07-22 23:32:00,
2013-07-22 19:38:00,67.3,58.3,29.96,South,171,1.0,3.0,73,0.00,,,0.00,33,Wunderground v.1.15,2013-07-22 23:38:00,
2013-07-22 19:43:00,67.0,58.4,29.96,SSE,150,2.0,4.0,74,0.00,,,0.00,23,Wunderground v.1.15,2013-07-22 23:43:00,
2013-07-22 19:49:00,66.5,58.3,29.96,SE,142,2.0,4.0,75,0.00,,,0.00,14,Wunderground v.1.15,2013-07-22 23:49:00,
2013-07-22 19:54:00,66.2,58.0,29.96,SE,144,2.0,2.0,75,0.00,,,0.00,12,Wunderground v.1.15,2013-07-22 23:54:00,
2013-07-22 19:59:00,65.7,58.3,29.96,South,173,2.0,5.0,77,0.00,,,0.00,12,Wunderground v.1.15,2013-07-22 23:59:00,
2013-07-22 20:05:00,65.0,58.0,29.96,SE,134,2.0,2.0,78,0.00,,,0.00,11,Wunderground v.1.15,2013-07-23 00:05:00,
2013-07-22 20:11:00,64.7,58.0,29.96,SSE,147,1.0,1.0,79,0.00,,,0.00,9,Wunderground v.1.15,2013-07-23 00:11:00,
2013-07-22 20:16:00,64.4,58.1,29.96,SSE,159,1.0,1.0,80,0.00,,,0.00,0,Wunderground v.1.15,2013-07-23 00:16:00,
2013-07-22 20:21:00,64.1,57.8,29.95,ESE,105,1.0,2.0,80,0.00,,,0.00,0,Wunderground v.1.15,2013-07-23 00:21:00,
2013-07-22 20:26:00,63.8,57.9,29.95,SSE,166,1.0,2.0,81,0.00,,,0.00,0,Wunderground v.1.15,2013-07-23 00:26:00,
2013-07-22 20:31:00,63.6,57.7,29.95,SSE,150,1.0,1.0,81,0.00,,,0.00,0,Wunderground v.1.15,2013-07-23 00:31:00,
2013-07-22 20:36:00,63.4,57.8,29.96,SSE,154,0.0,1.0,82,0.00,,,0.00,0,Wunderground v.1.15,2013-07-23 00:36:00,
2013-07-22 20:42:00,63.3,57.7,29.96,SSE,152,0.0,0.0,82,0.00,,,0.00,0,Wunderground v.1.15,2013-07-23 00:42:00,
2013-07-22 20:47:00,63.2,57.6,29.96,SSE,152,0.0,0.0,82,0.00,,,0.00,0,Wunderground v.1.15,2013-07-23 00:47:00,
2013-07-22 20:52:00,63.2,57.6,29.96,SSE,152,0.0,0.0,82,0.00,,,0.00,0,Wunderground v.1.15,2013-07-23 00:52:00,
2013-07-22 20:58:00,62.9,57.7,29.96,SSE,152,0.0,0.0,83,0.00,,,0.00,0,Wunderground v.1.15,2013-07-23 00:58:00,
2013-07-22 21:03:00,62.7,57.8,29.96,SSE,152,0.0,0.0,84,0.00,,,0.00,0,Wunderground v.1.15,2013-07-23 01:03:00,
2013-07-22 21:08:00,62.6,57.7,29.96,SSE,152,0.0,0.0,84,0.00,,,0.00,0,Wunderground v.1.15,2013-07-23 01:08:00,
2013-07-22 21:13:00,62.4,57.8,29.96,SSE,152,0.0,0.0,85,0.00,,,0.00,0,Wunderground v.1.15,2013-07-23 01:13:00,
2013-07-22 21:18:00,62.2,57.6,29.96,SSE,152,0.0,0.0,85,0.00,,,0.00,0,Wunderground v.1.15,2013-07-23 01:18:00,
2013-07-22 21:24:00,62.1,57.5,29.96,SSE,152,0.0,0.0,85,0.00,,,0.00,0,Wunderground v.1.15,2013-07-23 01:24:00,
2013-07-22 21:29:00,61.9,57.3,29.95,SSE,152,0.0,0.0,85,0.00,,,0.00,0,Wunderground v.1.15,2013-07-23 01:29:00,
2013-07-22 21:34:00,61.8,57.6,29.95,SSE,152,0.0,0.0,86,0.00,,,0.00,0,Wunderground v.1.15,2013-07-23 01:34:00,
2013-07-22 21:39:00,61.6,57.4,29.95,SSE,152,0.0,0.0,86,0.00,,,0.00,0,Wunderground v.1.15,2013-07-23 01:39:00,
2013-07-22 21:45:00,61.3,57.4,29.95,SSE,152,0.0,0.0,87,0.00,,,0.00,0,Wunderground v.1.15,2013-07-23 01:45:00,
2013-07-22 21:50:00,61.1,57.2,29.95,SSE,152,0.0,0.0,87,0.00,,,0.00,0,Wunderground v.1.15,2013-07-23 01:50:00,
2013-07-22 21:55:00,60.9,57.3,29.95,SSE,152,0.0,0.0,88,0.00,,,0.00,0,Wunderground v.1.15,2013-07-23 01:55:00,
2013-07-22 22:01:00,60.6,57.0,29.96,SSE,152,0.0,0.0,88,0.00,,,0.00,0,Wunderground v.1.15,2013-07-23 02:01:00,
2013-07-22 22:06:00,60.4,57.1,29.95,SSE,152,0.0,0.0,89,0.00,,,0.00,0,Wunderground v.1.15,2013-07-23 02:06:00,
2013-07-22 22:11:00,60.3,57.0,29.95,SSE,152,0.0,0.0,89,0.00,,,0.00,0,Wunderground v.1.15,2013-07-23 02:11:00,
2013-07-22 22:16:00,60.1,56.8,29.95,SSE,152,0.0,0.0,89,0.00,,,0.00,0,Wunderground v.1.15,2013-07-23 02:16:00,
2013-07-22 22:22:00,59.9,56.6,29.95,East,101,0.0,0.0,89,0.00,,,0.00,0,Wunderground v.1.15,2013-07-23 02:22:00,
2013-07-22 22:27:00,59.7,56.8,29.95,East,101,0.0,0.0,90,0.00,,,0.00,0,Wunderground v.1.15,2013-07-23 02:27:00,
2013-07-22 22:33:00,59.6,56.7,29.95,East,101,0.0,0.0,90,0.00,,,0.00,0,Wunderground v.1.15,2013-07-23 02:33:00,
2013-07-22 22:38:00,59.5,56.6,29.95,East,101,0.0,0.0,90,0.00,,,0.00,0,Wunderground v.1.15,2013-07-23 02:38:00,
2013-07-22 22:44:00,59.4,56.5,29.95,East,101,0.0,0.0,90,0.00,,,0.00,0,Wunderground v.1.15,2013-07-23 02:44:00,
2013-07-22 22:49:00,59.3,56.7,29.95,East,101,0.0,0.0,91,0.00,,,0.00,0,Wunderground v.1.15,2013-07-23 02:49:00,
2013-07-22 22:54:00,59.3,56.7,29.95,East,101,0.0,0.0,91,0.00,,,0.00,0,Wunderground v.1.15,2013-07-23 02:54:00,
2013-07-22 22:59:00,59.2,56.6,29.95,East,101,0.0,0.0,91,0.00,,,0.00,0,Wunderground v.1.15,2013-07-23 02:59:00,
2013-07-22 23:04:00,59.1,56.5,29.95,East,101,0.0,0.0,91,0.00,,,0.00,0,Wunderground v.1.15,2013-07-23 03:04:00,
2013-07-22 23:09:00,59.1,56.8,29.95,East,101,0.0,0.0,92,0.00,,,0.00,0,Wunderground v.1.15,2013-07-23 03:09:00,
2013-07-22 23:15:00,59.0,56.7,29.95,East,101,0.0,0.0,92,0.00,,,0.00,0,Wunderground v.1.15,2013-07-23 03:15:00,
2013-07-22 23:20:00,58.9,56.6,29.95,East,101,0.0,0.0,92,0.00,,,0.00,0,Wunderground v.1.15,2013-07-23 03:20:00,
2013-07-22 23:25:00,58.8,56.5,29.95,East,101,0.0,0.0,92,0.00,,,0.00,0,Wunderground v.1.15,2013-07-23 03:25:00,
2013-07-22 23:30:00,58.7,56.4,29.94,East,101,0.0,0.0,92,0.00,,,0.00,0,Wunderground v.1.15,2013-07-23 03:30:00,
2013-07-22 23:35:00,58.6,56.3,29.94,East,101,0.0,1.0,92,0.00,,,0.00,0,Wunderground v.1.15,2013-07-23 03:35:00,
2013-07-22 23:40:00,58.5,56.5,29.94,East,101,0.0,0.0,93,0.00,,,0.00,0,Wunderground v.1.15,2013-07-23 03:40:00,
2013-07-22 23:45:00,58.4,56.4,29.94,East,101,0.0,0.0,93,0.00,,,0.00,0,Wunderground v.1.15,2013-07-23 03:45:00,
2013-07-22 23:50:00,58.3,56.3,29.94,East,101,0.0,0.0,93,0.00,,,0.00,0,Wunderground v.1.15,2013-07-23 03:50:00,
2013-07-22 23:55:00,58.2,56.2,29.94,East,101,0.0,0.0,93,0.00,,,0.00,0,Wunderground v.1.15,2013-07-23 03:55:00,